Theta_e
325 326 325 326 326 324 326 328 329 329 329 330 330 333 335 335 335 335 335 335 335 335 335 334 334 334 334 332 328 327 327 327 330 335 335 331 331 332 333 334 335 335 335 335 334 334 334 333 332 331 330 330 329 329 330 329 329 329 328 328 327 326 324 321 320 318 319 322 324 325 323 318 316 314 313 312 311 310 309 308 307 306 305 304 303 303 302 302 302 302 301 301 301 301 301 301 301
325 327 326 326 326 326 328 328 329 329 328 329 329 333 334 334 335 335 335 334 335 335 334 333 332 332 332 331 329 329 326 325 326 329 329 329 332 332 333 334 335 335 335 334 334 334 334 333 332 331 331 330 329 329 328 328 329 328 327 326 326 324 321 317 317 317 315 316 317 318 315 314 313 312 312 311 309 308 306 305 304 303 303 302 302 302 301 301 301 301 301 301 301 301 301 301 301
326 328 327 326 326 327 329 327 328 329 328 327 330 335 334 335 337 335 334 334 335 334 333 332 331 331 332 331 330 330 327 326 327 328 328 330 332 332 333 333 334 335 334 334 334 334 333 332 332 330 330 329 328 328 328 329 328 326 324 324 324 321 318 317 316 316 314 313 313 313 313 313 312 310 309 308 306 305 304 303 302 302 302 302 301 301 301 301 301 301 301 301 301 301 301 301 301
327 328 327 327 328 328 328 327 327 327 327 328 331 336 335 335 335 333 333 333 334 333 333 332 330 330 331 330 328 329 326 325 327 328 329 330 331 331 331 332 334 336 335 334 333 333 333 332 331 330 329 329 328 328 329 329 327 325 323 323 323 318 317 316 315 314 313 313 313 313 312 311 310 308 306 305 304 303 302 302 302 302 301 301 301 301 301 301 301 301 300 301 301 301 301 301 301
327 328 327 328 330 329 327 328 326 326 329 332 334 336 335 334 333 332 333 333 333 333 332 331 329 329 329 327 327 326 324 324 327 329 329 330 331 330 330 332 333 335 335 334 333 333 332 332 330 329 329 329 329 330 330 328 325 323 323 323 320 316 316 315 314 314 314 313 313 312 310 309 307 305 304 303 303 302 302 302 301 301 301 301 301 301 300 301 301 301 301 301 301 301 301 301 301
327 327 327 328 330 329 329 329 326 329 333 334 337 338 334 332 332 332 332 332 333 333 332 331 329 328 325 323 324 322 323 325 327 329 330 331 331 329 331 332 333 335 334 333 333 333 331 331 330 330 330 330 330 330 329 327 324 322 323 322 318 315 315 314 314 314 313 313 311 310 308 306 304 303 303 303 302 302 302 301 301 301 301 301 301 301 300 300 300 300 300 300 300 300 300 300 300
327 328 328 329 330 330 330 329 326 331 334 334 337 336 332 332 332 332 332 332 332 332 332 330 329 329 326 324 324 323 324 326 328 330 330 330 330 330 331 332 333 335 334 333 333 332 331 330 330 329 328 328 328 327 325 323 322 322 322 320 316 314 314 314 314 313 312 311 308 306 305 304 303 303 302 302 302 302 301 301 301 301 301 300 300 300 300 300 300 300 300 300 300 300 300 300 300
327 327 328 331 332 331 329 328 328 333 334 334 336 334 332 332 332 332 331 332 332 331 331 330 330 329 327 326 324 323 325 327 328 329 330 331 331 331 332 332 334 334 333 333 332 330 329 328 326 324 323 323 323 323 322 322 322 322 320 316 314 314 314 314 313 312 310 307 305 304 303 303 303 302 302 301 301 301 301 301 300 300 300 300 300 300 300 300 300 300 300 300 299 299 299 300 299
327 328 329 332 332 332 328 328 332 334 333 333 332 332 332 332 332 332 331 332 332 331 331 330 330 328 326 325 322 323 326 327 328 329 330 331 331 331 331 332 332 333 332 331 329 328 326 324 322 321 321 321 322 323 324 324 323 319 316 313 314 314 313 312 310 308 306 304 304 303 303 303 302 302 301 301 301 301 300 300 300 300 300 300 300 300 300 299 299 299 299 299 299 299 299 299 299
326 328 330 331 331 332 328 328 334 334 332 331 330 331 331 332 332 332 332 332 332 332 331 330 329 328 326 324 322 324 326 327 329 329 331 331 330 330 329 329 329 329 328 327 326 325 324 323 322 322 322 322 323 324 324 323 319 315 313 313 313 313 312 310 307 305 304 303 303 303 303 302 302 301 301 301 301 301 301 300 300 300 300 300 299 299 299 299 299 299 299 299 299 299 299 299 299
326 329 330 331 330 332 328 328 334 332 331 330 330 331 331 332 333 332 333 332 332 331 330 329 328 327 325 323 322 324 326 328 329 330 330 330 329 329 328 328 327 327 325 324 324 323 323 322 322 322 322 323 323 323 321 318 315 313 313 313 313 311 309 306 305 304 304 303 303 303 303 303 302 302 302 302 301 301 300 300 300 299 299 299 299 299 299 299 299 299 299 299 299 299 299 299 299
327 329 330 332 330 331 330 330 333 331 330 330 329 331 331 332 332 332 332 332 332 330 329 330 328 327 326 323 322 324 326 328 329 330 330 329 328 329 328 327 326 325 324 323 324 323 323 323 324 323 323 323 322 319 316 315 314 313 313 312 311 309 306 304 304 304 304 304 303 304 304 303 303 303 302 301 301 300 300 299 299 299 298 298 299 299 299 299 299 299 299 299 299 299 299 299 299
327 330 331 331 329 330 330 331 332 332 331 330 330 330 331 332 332 332 332 332 331 328 328 329 328 328 326 323 323 324 326 327 328 329 329 329 328 328 327 326 325 324 324 324 324 324 324 325 324 324 323 322 319 316 314 313 313 312 311 310 308 305 304 304 304 304 304 304 304 304 304 304 303 303 302 301 300 300 299 299 299 299 299 299 299 299 299 299 299 299 299 299 299 299 300 300 300
326 329 330 330 330 328 330 333 332 332 332 330 329 330 331 331 331 332 331 329 328 327 326 328 329 328 325 322 323 323 326 327 328 328 328 328 327 326 325 325 324 324 325 324 325 325 324 324 324 324 322 320 317 314 313 313 311 311 309 307 305 304 304 304 304 304 304 304 305 304 304 304 303 302 302 301 301 300 300 300 300 300 300 300 300 300 300 300 300 300 300 300 300 300 300 301 301
325 328 330 330 330 327 331 337 333 331 332 329 329 330 329 327 330 331 328 326 325 326 326 328 328 328 326 324 324 324 326 327 328 328 328 326 325 325 324 325 325 324 324 324 324 324 324 324 323 322 321 317 314 313 313 312 310 308 306 304 304 304 304 304 304 304 305 305 304 304 304 304 303 302 302 302 301 301 301 301 301 300 300 300 300 300 300 300 300 300 300 300 300 301 301 301 302
324 328 330 330 330 327 330 337 336 333 331 329 329 329 326 324 328 328 325 325 324 325 325 325 326 327 327 326 325 326 327 327 328 328 327 325 324 324 324 324 323 323 323 323 323 323 323 323 322 321 318 315 313 312 311 310 309 306 304 304 304 304 304 304 304 305 305 305 305 304 304 303 302 302 302 301 301 301 301 301 301 301 301 301 301 301 301 301 301 301 301 301 301 301 302 302 302
324 328 331 331 330 327 328 334 335 333 330 328 328 328 326 323 325 325 325 326 324 323 323 323 325 327 327 327 326 326 327 327 327 327 325 325 324 324 323 323 323 323 323 323 323 323 322 322 320 318 315 313 311 310 310 308 307 305 304 304 304 304 304 304 305 305 305 304 304 303 303 302 302 302 301 301 301 301 301 301 301 301 301 301 301 301 301 301 301 301 301 301 302 302 301 301 301
324 329 331 331 329 328 328 330 331 330 328 328 327 327 325 323 324 325 325 325 323 322 322 322 325 326 327 327 326 326 326 326 326 325 325 324 323 324 323 322 323 323 323 323 322 321 321 321 317 315 313 311 309 308 308 306 305 304 304 303 303 303 304 305 305 304 304 304 303 303 302 302 302 301 301 300 300 300 300 301 301 302 302 302 301 301 300 300 300 301 301 301 301 301 301 301 301
325 329 330 330 329 328 330 330 329 329 327 327 326 327 325 324 325 326 325 325 323 322 321 322 323 323 325 325 325 326 326 326 325 323 322 320 320 323 323 322 323 323 323 323 322 320 319 319 315 313 313 310 308 307 306 305 304 303 303 303 303 303 304 304 304 304 304 303 303 303 302 302 302 301 301 300 300 300 300 300 301 301 301 301 301 300 300 300 300 301 301 301 300 300 301 300 300
325 328 329 329 329 328 329 330 330 328 327 327 326 326 325 324 325 326 325 325 324 322 322 321 319 319 323 324 324 325 325 325 324 323 321 320 321 323 323 323 323 323 323 323 322 319 316 316 314 312 311 309 307 306 305 303 303 303 303 303 303 304 304 304 304 303 303 303 303 303 302 302 302 301 301 300 300 299 300 300 300 301 301 301 301 300 300 300 300 300 300 300 300 300 300 300 299
326 327 328 327 327 328 329 329 329 328 327 327 325 325 325 324 325 325 325 325 323 322 322 321 319 319 322 323 324 324 324 325 325 325 324 323 323 324 324 324 324 323 324 324 322 319 315 313 313 312 310 308 306 304 303 303 302 303 302 302 303 303 303 303 303 303 303 303 303 302 302 302 301 301 300 300 299 299 299 300 300 301 301 300 300 299 299 300 300 300 300 299 299 299 299 299 298
324 324 325 325 326 328 328 328 328 327 327 326 325 325 325 323 321 323 324 322 321 321 322 321 319 320 322 323 324 324 324 324 325 325 325 325 325 324 324 324 324 324 324 323 323 319 314 313 312 311 308 306 304 303 302 302 302 302 302 302 302 302 303 303 303 303 302 302 302 302 302 301 301 300 299 299 299 299 300 300 300 300 300 300 299 299 299 300 300 299 299 299 299 299 298 298 298
323 323 323 324 326 327 328 328 328 328 327 326 325 323 321 318 316 319 320 318 319 321 321 321 319 320 322 323 324 324 324 324 324 324 325 325 324 324 323 323 323 323 323 323 322 319 314 313 311 309 306 304 302 302 301 301 301 301 301 301 301 302 302 303 302 302 302 302 302 301 301 300 300 299 299 299 299 299 300 300 300 300 300 299 299 299 299 299 299 298 298 299 298 298 297 297 298
323 322 321 322 324 325 326 327 327 327 327 325 323 320 318 316 314 315 315 315 318 319 318 319 319 320 322 322 323 325 324 324 325 325 326 326 325 324 323 323 323 323 323 322 321 317 314 313 310 307 305 303 301 301 301 301 301 300 300 300 300 301 301 301 301 301 301 301 301 300 300 299 299 299 299 299 299 299 300 300 300 299 299 299 299 299 299 298 298 298 298 298 297 297 297 297 297
321 320 320 320 322 322 323 324 324 323 322 321 319 316 315 314 314 313 312 313 315 315 317 318 318 320 322 322 323 324 324 325 325 325 326 325 324 324 323 322 323 322 321 320 319 315 313 312 309 306 304 302 301 301 301 300 300 300 300 300 300 300 300 300 300 300 301 301 300 300 299 299 299 299 299 299 300 300 300 300 300 300 299 299 299 299 298 298 298 298 298 297 296 296 296 296 297
320 320 320 320 320 321 321 321 321 319 318 318 317 316 315 315 315 312 310 312 313 314 316 316 316 320 321 321 322 323 324 324 324 324 324 324 323 323 322 322 322 321 320 319 318 315 313 312 309 306 303 301 301 300 301 300 300 300 300 300 300 300 300 300 300 300 301 301 300 300 299 299 299 300 300 300 300 300 300 300 300 299 299 298 298 298 298 298 298 297 297 296 296 296 296 296 296
319 319 319 319 320 320 320 320 319 319 318 318 317 316 316 315 316 312 310 312 313 313 314 314 315 319 321 321 322 323 324 324 323 323 323 323 322 322 322 322 321 320 320 318 318 316 313 312 309 305 302 301 300 300 300 300 300 300 300 300 300 300 300 300 301 302 302 301 300 299 299 300 300 300 300 300 300 300 300 299 299 298 298 298 298 297 297 297 297 297 296 295 296 296 296 296 296
319 319 318 319 319 319 320 320 320 319 318 318 317 317 316 314 314 311 310 312 312 313 314 314 316 318 321 322 322 322 322 323 322 323 323 322 322 322 321 321 320 320 319 318 318 317 314 312 309 305 302 300 300 300 300 300 300 300 300 300 300 300 300 301 302 302 302 302 301 300 299 300 300 300 300 300 300 300 300 299 298 298 298 298 297 297 297 297 297 296 295 295 296 296 296 296 297
320 320 319 319 318 318 318 319 320 319 319 318 318 321 319 313 311 310 310 311 313 314 314 315 317 318 320 321 321 321 322 322 322 322 322 322 322 321 321 321 320 319 319 318 318 317 314 312 310 305 302 301 300 300 300 300 300 300 300 300 300 300 301 302 303 302 301 301 302 301 300 300 300 300 300 300 299 299 299 299 298 298 298 297 297 297 297 297 296 295 295 295 296 296 296 296 297
321 320 320 320 321 319 317 318 320 319 319 318 320 327 321 311 309 309 309 311 313 314 314 315 317 318 319 320 321 321 321 322 322 323 323 322 321 320 321 320 320 319 318 318 318 317 314 312 310 305 302 301 301 300 300 301 300 300 300 300 300 300 302 303 302 301 301 300 301 301 300 300 300 300 300 299 299 299 299 298 298 298 297 297 297 297 297 296 295 295 295 296 296 296 296 297 297
321 321 322 324 326 321 316 317 319 318 318 317 321 328 320 311 310 309 309 311 313 313 313 314 316 317 319 319 321 321 321 321 322 323 322 321 321 320 320 320 319 319 319 317 318 317 314 312 309 305 302 301 301 300 300 300 300 300 300 300 300 301 301 302 301 301 300 300 300 300 300 299 299 299 299 299 299 299 298 298 298 298 297 296 297 297 296 295 295 295 295 296 296 297 297 297 296
321 324 326 326 325 320 316 316 318 318 318 317 322 325 318 312 311 310 309 310 312 312 312 313 314 315 318 319 320 321 321 321 322 322 322 321 321 320 320 320 319 319 318 318 317 317 314 311 308 305 302 301 301 301 300 300 299 300 299 300 300 300 301 301 301 300 300 300 299 299 298 298 298 298 298 299 299 298 298 298 298 297 296 296 297 297 296 295 294 295 296 296 296 296 297 296 295
323 325 328 326 323 320 319 317 316 318 318 319 323 322 317 313 311 310 310 310 311 311 310 312 313 313 316 319 320 321 321 321 322 322 321 321 320 320 320 319 318 318 318 318 317 317 314 311 308 305 302 301 301 301 300 299 299 300 299 300 300 300 300 300 300 300 299 299 299 298 297 297 297 298 298 298 298 298 298 297 297 296 296 296 297 296 295 294 295 295 296 296 296 296 296 295 294
325 325 326 324 321 321 321 319 316 317 320 319 320 319 316 313 310 310 310 310 311 311 310 311 313 314 315 319 320 320 321 321 322 322 321 320 320 320 319 319 317 317 317 317 317 316 314 311 308 305 303 301 300 300 300 299 299 299 299 300 300 300 300 300 299 299 299 299 298 297 296 296 297 297 298 298 298 298 297 297 296 296 296 296 296 295 294 294 295 296 296 296 296 296 295 294 293
325 325 325 323 321 322 321 319 317 317 320 319 317 316 314 312 311 310 310 311 312 312 311 311 313 315 315 317 320 320 321 321 322 322 321 321 320 319 319 318 317 316 317 317 317 316 314 312 309 306 303 301 301 300 300 300 299 299 300 300 299 300 300 299 298 298 298 298 297 296 296 296 297 298 298 298 298 297 297 296 296 296 296 296 295 294 294 295 295 295 295 295 295 295 294 293 291
324 324 323 323 322 321 319 318 316 316 320 320 318 317 314 312 312 311 311 311 312 313 312 311 312 314 314 315 318 320 320 321 321 319 319 320 320 319 319 318 317 316 317 317 316 315 313 311 309 306 304 302 301 301 301 300 300 300 300 299 299 299 298 297 296 296 297 297 296 296 296 297 297 298 298 298 297 296 296 296 296 296 296 296 294 294 294 295 295 295 295 295 294 294 294 293 291
322 323 322 321 320 319 318 317 315 315 319 320 318 316 314 313 312 312 312 311 312 313 313 312 312 313 314 313 315 319 321 320 319 315 316 319 320 319 319 318 317 316 317 317 315 314 312 310 309 307 305 304 302 302 302 301 300 299 298 297 297 297 296 295 295 295 296 297 297 297 297 297 298 298 298 297 297 296 296 296 296 296 296 295 294 294 294 294 294 294 294 294 294 294 293 292 290
322 321 321 319 319 318 316 316 315 315 319 319 317 316 315 313 313 313 312 312 312 313 313 313 312 312 314 314 315 319 320 318 316 315 315 318 319 319 319 318 317 316 316 316 314 313 311 309 309 307 307 306 304 303 303 302 300 298 297 297 297 296 295 295 295 296 297 298 298 298 297 297 298 297 297 296 296 296 296 296 296 296 295 294 294 294 294 294 294 294 294 294 294 293 292 291 289
321 320 321 320 318 318 317 316 316 316 319 319 318 317 316 314 313 313 312 312 313 314 313 313 313 313 314 315 317 317 317 316 316 317 317 317 318 318 319 318 316 316 316 315 313 312 311 310 309 309 309 309 308 306 303 301 300 299 298 298 297 297 296 296 297 298 298 298 298 297 297 298 297 297 296 296 296 296 296 296 296 295 294 293 293 294 294 294 294 294 294 293 293 292 291 290 288
322 321 321 320 319 320 320 318 316 317 318 319 319 319 317 314 314 313 312 312 313 313 313 314 314 314 314 316 317 316 316 317 318 318 316 315 316 317 317 317 315 315 315 314 313 312 311 311 311 311 311 311 310 309 304 301 302 301 301 301 299 299 299 297 297 298 299 298 297 297 298 297 296 296 296 295 296 296 296 296 295 294 293 293 293 293 293 294 294 294 293 292 291 290 289 288 286
323 322 321 320 320 321 320 318 317 318 318 319 321 323 321 317 315 315 313 312 313 313 313 314 315 315 315 315 316 316 316 318 319 318 316 314 314 315 316 315 315 315 314 313 313 313 312 312 312 312 311 311 310 309 306 304 306 306 306 305 302 302 300 297 297 298 298 297 297 297 297 296 296 296 296 295 296 296 296 295 294 294 293 293 293 293 293 294 294 293 292 291 290 289 287 287 286
324 323 321 320 320 320 318 319 320 322 322 319 320 326 328 321 318 319 316 313 314 313 313 314 314 315 316 315 315 316 317 318 319 318 315 313 313 314 314 314 315 314 314 313 313 313 313 313 313 312 311 311 310 309 308 308 309 308 307 306 304 302 299 297 297 298 298 297 297 297 296 296 296 296 296 296 296 295 295 294 294 293 293 293 293 293 294 294 293 293 291 290 289 287 286 286 286
323 322 321 321 320 319 319 321 323 325 325 319 317 324 328 324 322 321 317 314 314 314 314 314 314 316 317 316 316 316 316 318 319 317 314 313 313 314 314 314 314 314 314 314 315 314 313 313 312 312 312 311 310 309 309 308 308 308 307 305 303 301 299 298 298 298 297 297 297 296 296 296 296 296 296 296 295 295 294 294 293 293 293 293 293 294 294 293 292 291 290 289 287 286 285 285 285
323 321 322 321 320 320 322 324 324 322 321 319 317 319 324 327 326 324 320 317 317 316 316 315 315 316 317 317 317 316 317 318 318 319 317 313 314 314 314 314 314 314 315 316 316 314 313 313 312 311 311 310 309 309 308 307 307 306 305 303 301 299 298 298 298 297 297 297 296 296 295 295 295 296 296 296 295 294 294 293 293 293 293 293 294 293 293 292 292 290 289 287 286 286 285 285 284
322 322 322 321 320 322 324 324 322 320 322 324 320 318 323 327 324 321 321 321 321 319 318 317 316 316 317 317 317 317 317 318 317 320 319 315 314 314 313 314 315 316 317 316 315 315 314 312 311 310 309 309 308 308 307 306 305 304 303 301 299 298 298 298 297 297 297 296 296 295 295 294 294 295 295 295 295 293 293 293 293 293 293 293 293 293 292 292 291 289 288 287 286 285 285 284 284
320 321 322 322 322 323 324 324 323 322 324 324 320 316 321 325 321 319 322 323 322 321 319 318 317 317 317 318 318 317 317 317 316 318 318 315 315 315 314 315 317 316 316 315 315 314 313 311 309 308 308 308 307 307 306 305 304 302 301 300 299 298 298 297 297 297 296 295 295 295 294 294 294 294 295 294 294 293 293 293 293 293 293 293 293 292 291 291 289 288 287 286 285 285 284 284 283
319 320 321 322 322 322 323 323 323 324 323 320 316 315 318 322 322 319 320 321 321 321 320 318 318 318 318 318 318 317 316 316 316 315 315 315 315 315 314 315 316 316 315 316 315 313 311 309 308 307 307 307 307 306 305 303 302 301 300 299 298 298 297 297 296 296 295 295 295 295 294 294 294 294 294 293 293 293 293 293 293 293 293 293 292 292 291 290 289 288 286 286 285 284 284 283 283
319 321 320 321 321 320 321 321 320 322 321 317 314 314 316 320 321 319 317 316 316 319 320 319 319 318 318 319 318 317 316 316 315 314 314 316 316 315 314 314 315 315 315 316 314 311 309 307 307 307 307 307 305 304 303 302 301 300 299 298 298 297 297 297 296 296 295 295 295 295 295 295 295 294 294 293 293 293 293 293 293 293 293 292 292 291 291 289 288 286 285 285 284 284 283 282 282
320 320 319 320 320 319 320 320 320 320 317 314 313 314 318 320 318 317 316 314 313 314 316 317 317 318 317 317 317 316 315 315 314 313 314 315 316 315 315 315 315 316 316 315 313 311 309 308 308 307 306 305 303 302 301 300 299 298 298 298 298 297 297 296 296 296 295 295 295 295 295 295 295 294 293 293 293 292 293 293 293 293 292 292 292 291 290 288 286 285 285 284 284 283 283 282 282
319 319 319 320 320 319 319 319 319 318 315 313 312 314 320 320 315 314 313 311 311 310 311 313 314 314 314 314 314 314 314 313 312 312 314 315 316 316 316 316 316 316 315 314 313 311 310 308 308 306 304 303 302 301 300 299 298 298 298 298 298 297 297 296 296 295 295 295 295 295 295 295 294 293 293 292 292 293 293 293 293 293 292 292 292 291 289 287 285 285 284 284 283 283 282 282 282
317 315 317 318 316 317 320 320 318 318 315 313 312 314 320 319 314 311 309 308 309 309 309 309 309 310 311 312 313 313 313 312 312 312 313 314 315 316 316 316 316 315 313 313 312 310 309 307 305 303 302 301 300 299 299 298 298 298 298 298 297 297 296 296 295 295 295 295 295 295 295 294 293 293 292 292 292 293 293 293 293 293 293 292 291 289 287 285 285 284 284 283 282 282 282 282 282
316 316 318 317 313 314 318 317 316 317 316 314 314 315 316 313 310 308 307 307 307 307 307 307 307 308 308 308 309 310 310 311 311 312 312 313 314 315 315 315 314 313 312 311 310 308 306 304 303 301 300 299 299 299 298 298 298 298 298 297 297 296 296 295 295 295 295 295 295 295 294 294 293 293 292 292 293 293 293 293 293 293 292 291 289 287 285 285 284 284 283 283 282 282 281 281 282
317 316 316 312 309 314 318 314 312 314 315 314 315 315 312 310 310 308 306 307 307 307 307 306 306 306 306 306 306 306 306 307 308 309 310 311 312 313 313 313 312 311 310 308 306 304 303 301 300 300 299 299 299 298 298 298 298 298 297 297 296 296 295 295 295 295 295 295 294 294 294 293 292 292 292 293 293 293 293 293 293 293 292 290 287 286 285 284 284 283 283 282 282 281 281 282 282
317 316 311 309 307 311 316 313 312 313 314 312 312 312 311 311 312 309 307 308 308 308 308 306 306 306 306 305 305 305 305 305 305 307 308 310 310 311 311 310 309 308 307 305 303 302 300 300 299 300 299 299 299 298 298 298 297 297 297 296 296 295 295 295 295 295 295 294 294 294 293 292 292 292 293 293 293 293 293 293 293 292 290 288 286 285 284 284 283 283 282 282 281 281 281 282 282
313 311 308 310 310 312 314 312 311 312 312 312 310 309 309 311 312 309 308 309 308 309 309 307 306 307 306 305 304 304 305 305 306 306 307 308 307 307 307 307 306 305 304 302 301 300 299 300 300 300 299 299 298 298 298 297 297 297 296 296 296 295 296 295 295 295 294 294 294 293 292 292 292 293 293 293 293 293 293 293 292 290 288 286 285 284 284 283 283 283 282 282 281 281 282 282 282
309 309 308 309 310 311 312 310 311 313 312 311 310 308 309 311 310 309 310 308 308 310 310 309 307 307 306 305 304 303 303 303 304 304 304 304 304 304 304 304 304 302 301 300 299 300 300 300 300 299 299 298 298 298 297 297 297 296 296 296 296 295 295 295 294 294 294 293 293 292 292 292 293 293 293 293 293 293 293 292 290 289 287 285 284 284 284 283 283 282 282 281 281 281 282 282 283
310 311 310 309 308 307 309 309 308 311 313 312 311 311 312 310 306 307 308 307 308 311 310 309 308 307 306 304 303 303 302 302 302 302 302 302 303 304 303 303 301 300 299 299 300 300 300 299 299 299 299 298 297 297 297 297 296 296 296 296 295 295 294 294 294 294 293 293 292 292 292 292 293 293 293 293 293 292 291 290 289 287 286 285 284 284 283 283 282 282 282 281 281 281 282 282 283
305 307 306 306 307 308 311 309 306 307 311 312 312 312 311 308 304 304 306 305 306 308 309 309 309 307 306 305 304 304 303 302 302 302 303 303 303 303 301 300 299 299 299 299 300 299 299 299 299 298 298 298 298 297 297 297 296 296 296 295 295 295 294 294 294 293 293 292 292 292 292 293 293 293 293 293 292 291 290 289 287 286 285 284 284 283 283 283 282 282 281 281 281 282 282 283 283
Wind_Speed
5 3 2 1 1 3 5 2 1 1 1 2 2 2 3 7 6 3 6 6 5 8 14 16 19 18 13 15 19 20 17 10 5 2 6 8 12 10 10 9 7 13 16 15 16 16 16 14 14 14 14 14 14 13 13 13 12 11 12 13 13 13 13 13 12 12 11 12 12 11 10 11 12 12 13 14 14 15 15 16 16 17 17 17 17 17 17 17 17 17 17 17 18 18 18 18 18
5 4 3 0 1 2 2 3 1 1 2 3 2 2 3 6 5 5 6 7 8 9 16 20 24 24 23 24 21 19 17 13 10 10 15 15 15 11 11 10 11 16 16 15 16 16 15 14 14 14 14 15 14 13 13 12 11 11 12 13 13 14 14 13 13 12 12 11 10 10 11 12 13 14 14 15 15 16 16 17 17 17 18 18 18 18 18 18 18 18 18 18 18 19 19 19 19
5 4 3 0 2 0 1 2 1 1 4 3 1 2 3 5 7 9 8 10 13 14 15 16 19 14 13 17 13 12 9 10 15 16 17 16 15 12 10 10 11 15 16 16 16 15 15 15 15 15 15 14 13 13 13 12 11 11 12 13 13 14 14 14 14 14 13 13 12 12 13 14 14 15 16 16 16 16 17 17 18 18 18 18 19 19 19 19 19 19 19 19 20 20 20 20 20
5 4 4 1 2 3 1 1 1 1 3 2 2 2 4 9 10 9 10 12 12 13 11 11 12 11 15 16 11 13 9 8 13 14 15 16 17 12 11 11 10 15 18 16 16 16 16 16 16 16 15 13 13 13 12 10 9 10 12 13 13 14 14 15 15 15 14 14 13 13 14 15 15 16 16 16 17 17 17 18 18 18 18 19 19 19 20 20 20 20 20 20 20 20 20 21 21
5 4 4 2 1 2 1 1 2 1 1 0 2 2 7 12 11 9 10 11 11 12 11 9 7 11 20 15 8 8 7 7 11 16 18 18 17 12 12 9 7 16 21 18 17 17 17 17 17 16 14 14 13 13 11 9 9 10 11 12 13 14 15 15 15 15 14 14 14 14 15 15 16 16 17 17 17 18 18 18 18 19 19 19 19 20 20 20 20 20 20 20 21 21 21 21 22
6 4 4 3 3 3 1 2 3 2 1 1 3 3 8 11 12 13 10 9 12 13 11 13 12 14 16 13 12 9 8 10 13 18 19 18 15 11 11 6 5 19 25 22 21 20 19 18 17 16 15 14 13 12 10 8 8 9 11 12 13 14 14 15 15 14 14 14 14 15 15 15 16 17 17 17 18 18 19 19 19 20 20 20 20 20 20 20 21 21 21 22 22 22 22 23 23
7 4 3 3 4 3 1 2 2 3 1 1 6 5 8 12 14 15 10 7 11 12 12 16 18 17 10 7 12 12 12 14 16 20 18 17 15 12 11 6 8 21 25 23 22 22 20 17 16 15 14 13 12 10 7 6 7 9 11 12 13 13 14 14 14 14 14 14 14 15 15 16 16 16 17 17 18 18 19 19 20 20 20 20 20 20 21 21 21 22 22 23 23 23 23 23 24
8 3 3 3 2 2 2 2 1 3 1 4 9 9 11 14 14 12 9 8 8 10 14 16 17 15 7 6 8 8 13 16 20 20 19 18 16 14 12 12 16 21 24 23 22 20 18 15 14 12 11 10 9 8 6 7 8 10 11 12 13 13 13 13 13 13 14 14 14 15 15 16 16 17 17 18 18 19 19 20 20 20 20 20 21 21 21 22 22 23 23 23 23 23 23 24 24
10 4 1 3 2 2 3 2 3 5 5 7 10 12 13 14 14 11 9 9 9 12 14 12 12 12 9 11 9 8 14 18 21 20 20 19 18 18 17 18 19 22 24 24 21 17 16 13 12 10 9 8 7 8 8 8 9 10 11 12 12 12 13 13 13 13 14 14 14 15 15 16 17 17 18 19 19 20 20 20 21 21 21 22 22 22 22 23 23 23 24 24 24 24 25 25 25
8 7 2 2 2 2 4 2 5 5 7 9 9 10 11 12 13 12 10 11 13 14 15 11 13 16 15 12 8 10 16 20 22 21 21 22 21 21 20 19 19 20 20 20 18 15 14 12 11 9 8 8 8 9 9 10 10 11 12 12 12 12 12 12 13 13 13 14 15 16 16 17 18 18 19 19 20 20 20 21 21 21 22 22 23 23 23 23 23 24 24 24 24 25 25 26 26
6 8 3 2 3 3 4 2 6 5 7 8 8 9 8 10 11 11 12 12 14 15 15 12 13 21 17 9 8 12 17 20 22 22 22 23 22 20 18 17 16 16 16 17 16 13 13 11 10 9 8 9 9 10 10 11 11 12 12 12 12 12 12 12 12 13 13 14 15 16 17 17 18 18 19 19 20 20 20 20 21 21 21 22 22 22 22 23 23 23 23 23 24 24 25 25 26
4 5 3 3 3 2 3 2 6 5 7 6 6 8 7 9 10 10 12 11 13 14 12 8 13 20 13 6 8 13 18 21 22 22 23 23 20 18 16 15 14 15 16 15 13 12 12 10 9 9 9 9 10 11 11 11 11 11 11 11 11 11 11 11 12 13 14 15 15 16 16 17 18 18 19 19 19 19 19 20 20 20 20 21 21 21 22 22 22 22 22 23 23 23 24 24 25
3 4 3 2 2 2 3 2 6 5 4 5 7 8 7 9 10 10 12 12 12 11 11 11 20 18 10 7 10 14 19 20 22 23 23 22 19 17 16 15 15 14 15 13 11 11 10 10 9 9 10 10 10 11 11 11 11 11 11 11 11 11 11 11 12 13 14 15 15 16 17 17 18 18 18 19 19 19 20 20 20 20 21 21 21 21 21 21 22 21 22 22 22 23 23 24 24
4 4 4 2 3 3 2 4 5 4 2 6 9 11 8 6 9 11 12 11 10 10 10 13 20 15 10 9 9 15 20 21 22 22 22 21 17 16 15 15 14 13 13 11 10 10 9 9 8 9 10 10 10 10 10 11 11 11 11 10 10 10 11 12 12 13 13 14 15 16 16 17 17 18 19 20 20 20 20 20 21 21 21 22 22 22 23 23 23 23 23 23 23 23 23 23 23
7 4 3 1 3 3 1 4 4 2 3 8 11 14 9 7 9 10 8 10 11 11 13 12 12 9 12 11 9 19 22 22 21 20 20 20 17 16 14 13 13 12 12 11 11 11 10 9 9 9 9 10 10 9 10 10 11 10 10 10 10 10 11 12 12 12 13 14 15 15 15 16 17 19 19 20 20 21 21 21 22 23 23 24 24 25 25 24 24 24 25 25 24 24 23 24 24
9 3 1 2 3 5 1 4 2 1 3 9 15 15 10 10 10 9 9 15 14 10 11 10 6 6 15 17 17 25 24 21 21 19 20 20 18 16 14 13 13 13 12 12 12 11 10 9 8 8 8 9 9 9 9 10 10 9 9 9 9 10 10 11 12 12 13 13 13 14 15 16 18 19 19 20 21 21 22 23 24 24 25 26 26 26 26 25 26 26 26 25 25 25 25 26 26
9 1 1 3 3 5 2 5 4 4 6 10 16 14 10 9 13 16 15 19 19 14 14 13 10 14 19 21 24 27 24 22 21 20 20 20 19 17 16 14 13 12 12 12 11 10 9 8 7 7 8 9 8 9 9 9 9 9 9 9 9 9 10 11 11 12 11 12 12 13 15 16 17 18 19 20 21 21 22 23 24 25 26 27 28 28 29 29 29 29 28 28 28 28 28 28 27
7 1 2 4 3 4 1 3 6 9 10 11 15 13 10 10 11 16 16 18 19 17 17 15 17 20 21 26 27 26 23 23 22 21 20 18 17 17 16 15 13 12 12 11 11 9 8 6 5 5 7 8 8 8 8 8 8 8 8 8 8 9 9 10 10 10 10 11 12 14 16 16 17 18 19 20 22 23 24 25 27 28 30 30 31 32 32 32 31 31 31 30 29 29 29 28 27
7 2 3 3 2 1 5 8 10 11 14 14 16 14 11 12 12 14 12 12 15 14 14 15 19 21 25 29 25 23 23 22 22 20 17 15 14 15 15 14 12 11 11 10 9 8 6 3 4 5 6 7 8 7 7 7 7 7 7 7 7 8 8 8 9 9 10 11 13 15 16 17 18 19 20 22 23 25 26 27 29 31 32 33 33 33 33 32 32 31 30 30 30 29 29 28 27
7 4 3 2 2 4 6 9 13 17 23 19 16 15 13 13 13 14 14 13 12 10 8 11 16 20 26 27 23 23 23 21 21 20 18 17 16 16 14 13 12 10 10 9 7 6 4 3 4 5 6 6 7 7 7 7 7 6 6 6 6 7 7 8 8 9 10 12 14 15 16 17 19 20 21 22 24 25 27 28 29 31 32 33 33 33 33 32 31 31 30 30 30 30 29 28 27
4 3 1 2 3 5 6 10 19 23 26 20 18 16 14 14 13 14 16 12 7 8 8 9 14 21 26 25 24 23 22 21 20 19 19 20 18 16 14 12 11 9 8 7 5 4 2 4 4 6 6 6 7 6 6 6 6 5 5 5 6 6 7 8 9 10 11 13 15 16 18 19 20 21 22 23 25 26 27 28 29 31 32 33 33 33 32 32 31 30 30 30 30 30 29 27 27
4 3 6 7 5 6 7 16 25 24 24 21 19 14 13 14 10 12 17 9 5 9 10 12 16 22 26 25 25 22 21 20 18 18 18 17 16 15 14 12 10 8 6 4 3 2 2 4 4 5 6 6 6 6 6 5 5 4 4 4 5 6 7 8 9 11 13 14 16 17 19 20 21 22 23 24 26 27 28 28 30 32 32 33 33 32 32 31 30 30 30 30 29 28 27 26 26
5 4 9 11 10 8 7 16 22 23 23 19 17 16 18 18 14 17 21 13 11 14 12 15 17 20 23 24 24 22 20 18 18 18 17 15 15 15 14 12 9 7 6 4 3 2 3 4 4 5 5 6 6 5 5 4 4 4 4 4 5 7 8 9 10 11 13 15 16 18 19 20 22 23 24 25 26 27 28 29 30 32 32 32 32 32 31 30 29 29 29 29 28 27 26 26 26
8 5 8 12 15 14 11 16 19 21 20 19 22 20 18 17 11 17 21 14 16 18 14 15 16 18 20 20 21 20 20 19 18 17 16 14 14 14 13 11 10 7 5 5 4 4 5 4 4 5 5 5 5 4 4 3 3 3 4 5 6 7 8 9 11 12 14 16 17 18 19 21 22 23 24 25 26 27 28 29 31 31 32 31 31 31 30 29 29 29 30 29 28 27 27 27 28
9 6 8 11 16 19 19 21 23 24 24 24 27 21 19 20 15 15 15 10 14 15 15 16 15 17 18 19 19 19 19 17 16 15 15 15 15 15 12 10 8 6 5 5 5 5 5 5 5 5 6 5 4 3 3 2 2 3 4 5 6 8 9 10 12 13 15 17 18 19 20 21 22 23 24 25 26 27 28 30 31 31 31 31 30 30 29 29 30 30 29 28 27 27 28 29 30
9 11 13 14 15 17 20 22 22 24 22 25 24 18 17 18 13 13 10 8 11 11 14 14 14 17 17 17 17 16 16 14 14 15 16 16 16 15 12 9 7 6 5 5 5 5 5 5 5 5 5 4 3 2 2 2 2 3 5 6 7 8 9 11 12 14 16 17 18 19 20 21 23 24 24 25 26 28 29 30 31 32 31 30 29 29 29 30 30 30 28 27 28 28 29 30 31
19 22 20 19 17 15 18 21 21 20 17 21 20 12 11 10 6 7 7 7 9 11 14 14 14 16 16 15 15 15 14 13 14 16 17 17 16 13 10 8 6 4 4 4 4 5 4 4 4 5 5 4 2 1 1 2 3 4 5 6 8 9 10 12 13 15 17 18 18 19 20 22 22 24 25 26 27 28 30 30 31 31 30 29 29 29 29 30 29 28 27 27 28 29 30 31 32
28 27 21 17 18 16 16 16 17 15 12 17 21 12 9 10 6 5 7 7 7 12 14 13 13 14 15 15 15 14 14 14 15 18 18 17 15 12 9 6 4 3 3 3 4 5 5 4 4 5 4 3 2 0 1 2 4 5 6 7 8 10 11 12 14 16 17 19 19 19 20 22 22 24 24 25 27 29 30 30 29 29 29 28 28 29 29 29 28 26 25 26 28 29 31 32 33
26 24 16 9 11 12 12 9 10 11 9 14 16 9 5 7 5 6 7 7 8 12 12 12 12 12 14 14 14 14 13 14 15 17 17 15 13 10 8 5 4 3 3 2 3 5 5 4 4 4 4 3 2 1 2 3 4 6 7 8 9 10 12 13 15 17 18 19 20 20 21 22 22 23 24 26 27 29 30 29 28 28 28 27 28 29 29 28 26 25 25 27 29 31 32 34 34
15 13 11 7 6 6 7 5 8 9 7 7 4 3 3 3 4 5 5 7 9 11 9 9 10 10 12 13 13 13 12 14 16 18 17 15 12 10 7 5 5 3 1 2 4 5 5 4 4 4 4 3 2 2 3 4 5 7 8 9 9 11 13 15 16 18 18 19 20 21 20 21 22 23 25 27 28 29 29 29 28 27 27 27 29 29 28 26 25 25 26 29 30 32 34 34 35
8 7 8 5 4 2 4 4 5 6 3 2 2 0 3 3 3 3 4 7 9 10 8 8 9 9 11 12 12 12 13 15 16 16 15 15 12 10 8 6 4 2 2 4 5 5 4 4 4 5 4 3 3 4 4 5 7 7 9 10 11 13 14 15 17 18 18 19 20 20 21 22 24 24 26 28 29 29 29 28 27 27 27 27 28 28 26 25 24 25 27 30 31 33 34 35 34
5 5 5 3 4 4 3 4 3 3 4 1 2 2 3 4 6 4 5 8 9 9 8 7 8 8 10 11 11 12 14 16 15 15 15 14 11 9 7 5 4 4 4 5 6 6 4 4 4 5 4 5 5 5 5 6 8 8 9 11 12 13 14 16 17 17 18 19 20 21 22 24 25 26 27 28 29 29 28 27 27 27 27 28 28 27 24 23 24 26 27 30 32 34 35 35 33
3 3 4 4 6 5 4 3 5 2 6 2 2 3 3 4 8 6 5 7 7 8 7 6 6 7 9 11 11 12 14 15 14 15 15 13 10 8 6 5 6 7 7 7 7 7 5 4 5 5 5 6 7 7 6 7 8 9 10 11 13 14 15 15 16 17 18 19 21 22 23 24 25 26 27 28 28 27 26 25 26 26 27 28 27 25 23 23 24 27 28 30 32 34 36 35 33
4 3 4 5 6 7 5 3 1 2 5 2 3 5 4 5 9 9 7 6 6 6 6 6 6 6 8 10 11 13 14 14 12 14 14 12 9 7 6 5 5 6 8 9 9 7 6 5 5 6 6 7 8 8 8 9 10 10 11 12 14 15 15 15 17 19 20 21 22 23 23 24 25 27 27 28 27 26 25 24 25 26 27 27 25 23 22 23 25 27 29 30 32 34 36 35 33
7 5 5 6 6 7 6 4 2 3 4 6 7 7 5 6 7 8 8 7 6 5 5 6 6 7 7 9 11 12 13 14 13 13 13 11 8 7 6 4 4 5 9 10 9 7 6 6 6 7 7 8 9 9 9 10 11 11 12 14 14 16 18 19 20 21 22 22 23 23 23 24 25 27 27 27 26 25 24 24 25 26 27 25 23 22 22 25 26 28 30 32 33 35 34 34 33
8 7 7 7 7 6 6 5 2 3 4 6 5 6 7 6 6 7 8 8 6 5 5 5 5 7 8 9 10 12 13 14 12 11 12 11 9 8 7 4 4 6 9 9 8 7 7 7 7 7 8 9 10 10 11 11 12 13 14 15 15 16 18 20 20 22 24 24 23 23 23 24 25 26 26 25 24 23 23 24 25 25 25 24 22 22 23 25 27 29 31 33 35 36 35 34 34
11 11 9 8 8 7 6 6 2 2 2 4 5 7 7 6 5 6 7 7 7 7 6 6 6 7 9 9 9 12 12 10 9 11 11 10 9 9 7 5 5 9 9 8 7 7 7 7 7 8 9 10 10 11 12 12 13 13 14 15 15 14 16 17 18 21 23 23 22 22 23 24 25 24 24 23 23 23 24 25 25 25 24 22 22 23 24 26 27 30 32 34 35 36 36 34 33
12 10 10 8 7 6 6 5 3 1 1 4 5 6 6 5 5 6 7 6 7 9 8 7 8 8 10 10 10 11 10 8 10 14 12 10 10 9 8 7 8 10 9 7 7 7 8 8 8 9 9 10 10 12 13 14 14 13 13 14 15 16 17 18 18 19 20 20 19 21 23 24 24 23 22 22 23 24 25 25 25 24 23 22 22 23 24 26 28 30 33 34 35 35 35 33 33
10 9 8 7 6 8 7 4 3 0 1 4 4 5 4 4 4 6 8 7 7 10 10 8 9 9 9 11 12 11 10 10 12 12 10 10 9 9 10 10 10 11 9 7 7 7 8 8 9 9 10 11 11 12 13 14 15 14 14 16 17 18 18 18 18 18 18 18 21 23 24 23 22 21 21 22 23 25 25 25 24 23 22 22 23 24 25 27 29 31 33 34 35 34 33 32 32
7 8 6 6 7 7 4 3 3 1 2 5 6 4 3 4 4 4 8 9 7 10 11 10 10 10 10 12 12 12 12 13 11 8 8 9 9 10 11 10 11 11 9 8 7 7 8 9 9 10 10 11 13 13 13 13 15 15 16 17 17 18 18 17 17 18 18 19 23 26 24 22 21 21 22 23 23 24 25 24 23 22 22 22 23 24 26 28 30 32 32 33 34 35 34 33 31
4 5 7 9 8 7 7 6 6 3 4 4 5 3 1 4 4 3 6 8 7 9 12 12 13 13 12 11 11 12 14 14 12 10 10 10 10 9 9 10 11 10 9 8 8 9 9 10 10 10 11 12 13 13 13 14 15 16 17 18 18 19 18 15 15 16 17 19 22 24 22 20 20 21 22 23 23 23 23 23 22 22 22 23 24 25 27 29 31 31 32 33 32 33 34 33 31
4 3 8 13 10 11 11 10 8 3 2 3 2 2 1 3 4 4 5 5 6 8 11 14 16 16 14 12 12 14 16 14 12 11 10 11 10 8 8 11 12 10 9 8 9 10 10 11 11 11 12 13 13 13 12 13 15 16 17 18 18 18 16 14 14 15 17 19 21 21 20 20 20 21 21 22 22 22 22 22 21 22 22 23 24 26 28 30 31 31 31 32 32 31 32 32 32
3 1 9 13 11 14 13 10 6 2 2 2 1 2 1 1 3 5 6 5 6 8 10 14 17 17 17 17 15 16 17 15 14 12 10 10 10 8 9 11 11 10 10 9 9 11 12 12 12 12 12 13 12 11 12 13 15 16 17 17 17 17 16 14 16 17 18 18 18 18 20 21 21 21 21 21 21 21 21 21 21 22 23 24 26 28 30 31 31 31 31 31 31 31 31 32 32
3 1 7 12 12 13 12 8 4 2 4 3 0 1 0 1 2 4 8 6 5 7 9 13 17 19 20 20 19 18 17 16 15 14 13 12 11 10 9 9 10 10 9 8 9 11 13 13 13 13 12 12 11 11 13 14 15 16 16 17 16 16 16 16 17 17 17 16 17 17 19 21 22 23 23 22 21 21 21 21 22 23 24 26 28 30 30 31 30 31 30 31 31 31 30 30 29
1 2 7 12 11 11 9 6 4 3 4 2 2 1 1 1 2 2 6 4 5 8 10 12 17 21 22 22 21 20 17 15 14 15 15 15 13 11 9 10 11 10 9 8 9 11 13 14 14 12 11 11 12 13 14 14 15 15 15 16 15 15 16 16 16 17 16 16 16 17 18 18 20 23 23 23 22 21 22 22 23 24 26 28 30 30 30 30 30 30 31 32 31 30 29 27 26
2 2 9 9 7 7 5 4 4 3 2 2 2 1 1 1 3 1 4 3 5 7 7 12 19 23 23 23 21 19 16 14 13 13 14 14 14 14 13 12 11 9 9 9 10 12 14 14 13 12 11 12 13 13 14 13 14 14 14 15 14 14 14 14 15 15 15 14 14 15 15 16 18 21 22 23 22 21 22 23 24 26 28 29 29 29 29 30 30 31 31 31 30 29 27 25 24
5 5 9 7 5 4 2 2 4 3 2 1 2 2 2 1 3 3 4 2 4 6 5 9 16 21 21 20 18 17 16 15 14 14 14 14 15 16 15 13 11 10 9 10 11 13 13 12 11 11 12 12 12 12 12 12 13 13 13 14 13 14 13 13 13 13 13 14 14 14 15 15 17 19 21 21 21 21 22 23 25 27 28 28 28 29 30 31 31 31 31 30 28 27 25 24 23
4 5 6 5 4 3 2 3 2 2 1 2 3 3 2 1 3 4 4 2 2 3 5 7 12 17 19 18 17 16 16 17 17 17 17 15 14 15 14 14 12 11 10 11 12 13 12 11 11 11 11 11 10 11 11 12 12 12 12 13 13 13 13 12 12 12 13 14 15 15 15 16 17 18 19 19 20 21 23 25 27 28 28 28 28 29 30 31 31 31 30 28 27 25 24 23 23
1 4 6 5 3 2 2 1 0 1 1 2 2 3 1 2 2 3 5 2 4 6 7 8 10 13 14 15 15 15 16 16 16 16 16 15 14 13 13 13 12 11 11 11 12 12 11 11 11 10 9 9 9 10 10 11 11 11 12 13 13 12 12 12 12 12 12 14 14 15 16 16 17 18 18 19 20 22 24 26 27 27 28 28 29 30 30 30 30 30 29 27 26 25 24 23 23
1 4 4 4 3 3 2 3 2 1 2 3 3 3 1 2 1 2 5 5 6 10 11 10 10 10 10 11 12 14 15 15 14 14 15 15 15 14 14 13 12 11 10 10 11 11 11 10 9 7 7 7 8 9 9 10 11 11 12 12 12 12 12 12 12 12 13 13 14 15 16 16 16 17 18 19 21 23 24 26 26 27 28 29 30 30 30 30 30 29 28 27 25 25 24 24 23
0 1 2 3 2 2 3 3 2 2 1 2 3 2 1 2 0 3 7 8 9 9 10 10 9 8 8 9 10 12 14 15 14 14 15 16 17 17 16 14 12 11 10 9 9 9 8 7 6 5 5 6 7 9 9 10 10 11 11 12 12 12 11 11 11 12 13 13 14 15 16 16 16 17 19 20 22 23 24 25 27 28 29 29 29 30 30 30 29 28 27 26 25 25 24 23 23
2 2 2 2 1 2 3 1 2 4 2 1 1 1 1 2 2 4 7 8 8 8 9 8 7 6 6 6 8 10 12 14 16 16 17 17 18 17 15 14 12 10 9 8 7 6 5 4 4 4 5 6 7 8 9 10 10 11 11 12 11 10 11 11 12 12 13 13 14 14 15 15 16 18 19 20 22 23 25 26 27 28 28 28 29 29 30 30 29 28 27 27 25 25 24 23 22
1 3 2 1 1 4 5 1 1 2 2 1 2 2 1 2 2 1 4 5 5 7 8 9 8 7 7 7 7 8 9 10 12 14 16 16 15 14 13 12 11 10 8 7 6 5 3 2 2 4 5 6 7 8 9 9 10 11 12 11 10 10 10 11 12 12 13 13 14 14 15 16 17 18 19 20 22 24 26 27 28 27 27 28 29 29 29 29 29 28 28 27 26 24 24 23 23
1 1 2 1 2 3 3 2 2 1 1 1 2 2 2 2 1 1 3 4 4 6 7 10 11 10 10 9 8 9 9 9 9 10 12 12 12 12 12 12 10 9 7 6 5 3 2 2 3 4 5 6 7 8 9 10 11 12 12 11 10 10 11 11 12 12 13 13 13 14 16 17 18 18 20 22 23 25 26 27 27 26 27 28 29 29 29 29 29 29 28 26 25 24 24 23 23
5 4 3 2 2 1 1 2 2 1 1 1 2 0 1 2 2 2 6 7 6 6 7 9 11 11 11 10 9 9 9 9 10 10 11 12 12 12 12 11 10 8 7 6 4 3 2 1 3 4 5 6 7 8 9 10 11 12 11 10 10 11 11 11 12 12 12 13 14 16 17 17 18 19 21 23 24 26 26 26 26 26 27 28 29 29 29 29 29 28 28 26 25 24 24 24 23
5 3 1 1 2 2 0 1 2 2 2 1 0 1 2 2 1 2 6 7 8 8 6 7 11 13 12 12 11 11 10 11 11 12 13 14 13 13 12 10 9 8 7 5 4 3 1 1 3 4 5 7 7 8 9 10 11 11 11 10 10 10 10 11 11 12 13 14 16 16 17 17 19 20 22 24 25 26 25 25 25 26 28 28 29 30 30 30 29 29 28 27 25 24 24 24 22
3 4 3 2 2 1 1 1 1 2 2 0 1 1 2 3 2 2 1 2 6 9 8 8 13 15 13 13 13 13 13 13 13 14 14 13 12 11 10 9 9 8 7 6 4 3 0 2 4 5 6 7 8 9 9 10 11 11 10 10 10 10 10 10 11 13 14 16 16 17 17 18 20 22 23 24 25 25 24 25 26 27 28 29 30 30 30 30 30 29 28 27 25 24 24 24 22
0 2 1 0 1 1 2 2 2 1 2 1 3 2 3 3 2 4 4 4 3 7 10 12 14 16 15 14 14 14 14 14 13 13 12 11 11 10 10 10 9 8 7 6 4 1 2 3 5 6 7 8 8 9 9 10 11 10 10 9 9 9 10 11 13 14 15 16 17 17 18 20 21 23 24 24 24 23 24 25 26 27 28 29 30 30 31 31 30 29 28 26 25 24 24 23 21
Wind_Direction
242 262 231 192 103 111 99 118 209 210 231 270 230 150 115 117 153 140 113 122 74 59 70 64 62 68 87 103 104 84 54 49 31 43 115 123 125 126 125 112 89 109 122 125 122 118 114 110 105 103 103 98 92 89 84 79 76 68 64 60 55 50 49 54 58 70 81 83 76 67 59 46 43 40 35 32 30 27 24 23 21 19 18 17 17 17 16 14 12 10 8 6 4 4 3 2 2
236 251 228 268 21 89 114 180 187 172 170 255 238 112 140 137 130 97 99 106 91 98 84 77 80 81 97 105 97 77 49 47 61 88 110 117 124 130 134 121 107 119 127 126 124 121 116 111 107 105 102 95 92 89 85 85 82 69 59 52 46 45 47 54 63 68 70 74 70 55 43 37 37 35 32 30 27 26 24 22 21 19 17 16 15 14 13 12 10 9 7 6 4 4 3 3 3
226 236 204 72 343 128 171 180 228 197 182 229 149 82 135 109 78 77 80 90 104 109 90 85 81 63 89 89 64 71 63 58 80 99 108 113 122 128 133 117 112 130 133 127 126 121 116 112 108 103 97 91 89 88 88 89 83 65 53 48 44 46 50 57 64 66 63 61 55 45 39 36 34 31 29 28 27 25 23 21 19 18 16 14 13 12 11 9 8 7 6 5 4 4 3 2 2
216 228 192 129 304 222 210 157 232 239 212 216 105 117 113 100 92 85 86 98 109 101 85 83 66 46 76 82 71 84 82 65 83 101 105 111 121 126 126 114 118 137 134 129 127 120 117 113 109 103 96 90 87 87 88 87 75 58 49 46 46 51 56 61 64 63 60 55 49 43 38 35 32 30 28 27 25 24 22 20 18 16 14 13 12 10 8 7 5 4 3 2 2 1 0 359 358
204 222 201 176 300 231 222 192 217 262 275 162 89 62 91 105 111 100 92 96 91 82 81 83 76 78 81 76 81 84 82 85 96 106 107 114 125 128 120 110 132 142 133 129 129 122 117 114 109 103 97 91 88 87 87 81 65 50 46 47 48 56 62 63 62 60 56 50 45 40 36 34 32 30 27 24 23 21 19 17 16 14 12 11 9 8 6 4 3 1 360 359 358 357 356 355 354
190 201 220 243 293 281 314 230 206 116 264 120 90 59 97 109 117 114 104 92 81 80 84 89 98 94 77 67 78 85 102 105 107 111 112 121 128 123 109 99 147 142 135 132 130 124 119 115 107 102 97 92 89 88 84 71 55 46 46 49 53 60 64 62 59 55 50 46 43 39 37 34 31 28 25 22 20 18 16 14 13 11 9 8 7 6 4 2 360 359 357 356 355 354 353 352 351
189 176 198 253 275 244 263 239 212 110 262 68 116 132 117 113 120 123 120 117 86 76 83 96 106 97 81 79 84 85 103 112 112 115 118 121 120 108 98 106 144 136 132 132 128 124 121 116 109 104 100 95 91 88 80 58 48 48 49 54 61 64 63 59 55 50 47 45 42 40 37 34 30 27 23 21 19 16 14 12 11 9 7 5 3 2 0 359 357 356 355 354 353 352 351 349 348
189 193 194 233 251 190 235 237 23 80 60 54 101 113 117 122 127 130 135 132 92 84 95 105 109 93 93 110 95 97 109 116 113 115 116 113 110 105 107 127 146 137 130 126 121 118 117 112 106 102 98 94 87 79 66 57 55 56 59 65 69 65 61 56 52 49 47 45 42 40 36 33 29 26 23 20 18 16 14 11 9 6 4 2 360 358 357 356 354 353 352 351 350 349 348 347 347
190 226 216 226 247 185 224 181 89 81 81 69 84 96 114 128 132 136 135 122 111 113 110 121 118 97 113 107 97 118 118 118 115 116 116 114 112 111 113 118 125 125 122 119 115 115 110 105 101 95 90 84 76 71 68 69 66 67 72 74 71 65 60 54 51 49 47 45 42 39 35 32 28 25 22 19 17 14 12 8 5 2 360 358 356 355 354 353 352 351 350 349 348 348 347 346 345
188 225 236 232 249 205 217 153 107 86 79 77 87 105 124 141 147 143 125 120 126 115 100 102 106 111 120 104 100 125 123 122 120 121 121 118 115 112 111 107 106 110 114 112 110 110 104 101 95 91 86 79 73 74 78 78 75 77 78 74 69 62 58 54 52 49 46 44 41 38 34 31 27 23 20 17 15 11 8 5 2 359 357 355 354 353 352 351 351 350 349 348 347 346 345 344 343
178 221 236 243 226 209 223 130 112 105 98 91 92 116 146 158 146 127 108 114 125 106 95 90 96 115 113 95 114 129 129 127 126 126 123 119 116 114 111 109 108 107 104 103 104 104 101 99 95 90 82 78 77 80 84 84 84 82 77 71 66 61 58 55 52 48 45 42 39 36 32 29 26 22 19 16 12 8 5 2 0 358 356 355 354 353 352 351 350 349 347 346 345 344 343 342 342
170 203 214 243 214 196 226 110 112 118 114 115 117 133 174 163 119 109 110 114 120 90 75 100 126 125 108 89 127 134 134 133 133 131 125 121 119 116 112 109 106 102 97 95 98 100 98 94 90 85 78 78 81 86 89 89 88 82 75 70 65 62 59 55 52 47 43 40 38 34 31 28 24 22 18 16 12 9 6 4 2 0 359 358 357 355 353 352 350 348 346 345 344 342 341 341 341
186 188 190 251 229 204 218 117 115 126 120 135 137 142 180 163 125 130 137 126 117 84 61 110 138 128 102 112 135 139 135 136 137 133 129 123 119 115 111 108 103 99 95 93 93 91 89 85 81 78 77 78 84 89 93 92 87 81 75 71 67 64 60 54 49 44 42 38 36 33 30 28 26 24 22 20 16 13 11 9 7 6 5 2 0 358 355 353 351 348 346 346 344 343 342 341 340
212 214 198 247 274 252 188 115 126 144 141 136 137 148 160 141 135 143 138 118 86 88 92 118 141 130 114 125 142 148 138 135 133 130 128 120 118 116 111 107 104 99 92 88 82 76 71 70 70 74 77 79 86 91 95 92 86 81 76 72 69 64 57 51 46 43 41 37 35 33 31 31 30 29 27 24 21 18 15 13 11 9 7 5 2 360 358 355 352 351 350 349 347 346 345 342 340
214 272 226 220 284 256 132 118 144 167 137 133 146 154 131 77 139 141 106 105 77 93 109 116 144 144 148 151 157 155 143 137 134 131 127 118 118 114 109 107 103 98 89 79 68 62 58 59 67 73 80 86 91 95 93 90 85 81 77 74 67 59 54 49 47 44 39 36 35 34 34 35 35 33 30 27 23 20 17 14 12 9 7 4 2 360 358 354 353 353 352 349 348 347 345 343 343
206 319 260 190 256 247 129 118 142 233 149 143 154 150 110 67 111 105 87 119 102 95 98 91 120 136 151 151 150 151 144 144 141 134 127 121 122 115 110 105 97 93 84 74 64 57 55 57 69 77 88 94 98 99 92 89 86 84 78 70 62 57 53 50 46 40 36 34 34 36 38 39 37 34 30 27 23 19 16 13 11 8 5 2 359 357 355 352 353 354 351 349 348 348 347 348 349
198 349 215 195 235 229 165 156 179 167 144 146 155 147 118 85 91 92 97 110 93 84 80 73 105 123 137 142 142 143 142 147 141 133 132 126 124 118 114 106 98 91 79 72 62 56 56 55 69 86 99 101 102 99 93 91 87 83 76 67 62 57 53 49 43 38 35 34 36 39 40 38 34 29 26 22 18 14 12 10 8 5 2 0 358 357 355 354 354 353 352 351 351 351 352 352 352
188 211 198 204 217 222 310 153 142 131 137 147 153 149 127 106 107 110 101 94 85 81 78 84 114 120 132 139 138 137 139 144 137 133 132 126 125 123 118 110 102 90 77 67 57 54 53 55 76 99 110 109 106 99 96 94 88 82 74 67 61 57 53 47 41 38 35 36 37 38 36 32 27 22 19 14 10 8 6 5 3 2 0 359 358 357 357 356 355 353 353 353 353 353 352 352 353
182 215 190 210 241 7 36 110 129 130 139 141 144 148 127 113 127 129 111 98 91 80 78 93 106 114 134 143 141 139 142 143 138 136 131 127 132 130 122 116 108 93 79 64 53 53 52 68 102 118 123 117 110 104 101 95 89 82 72 67 61 57 51 43 39 35 33 35 34 31 28 23 18 16 12 8 5 3 2 2 0 360 358 357 357 357 356 356 354 353 353 353 352 352 351 352 353
197 226 187 210 334 10 35 111 133 138 140 136 139 141 124 121 129 127 119 107 95 91 100 102 104 120 137 146 149 144 144 147 144 142 141 141 141 136 128 122 113 97 84 66 55 55 66 120 134 137 133 125 118 110 106 96 90 81 72 67 60 55 47 40 35 31 30 29 26 23 18 15 12 10 8 4 1 360 0 0 358 357 356 356 356 355 354 354 353 352 353 352 351 350 351 352 352
185 223 160 4 12 20 25 104 124 133 137 133 131 130 124 130 130 134 129 109 91 100 116 124 126 135 142 149 153 149 149 151 149 148 147 147 145 141 137 130 119 105 89 71 63 58 93 143 150 149 138 128 121 111 106 97 89 80 71 62 53 48 39 32 27 24 24 21 18 13 10 9 6 5 3 360 359 358 358 358 355 355 355 354 353 354 353 352 352 352 352 352 351 350 351 352 352
92 63 53 28 50 60 58 112 124 130 132 126 123 123 128 122 95 118 124 94 71 99 119 139 141 144 148 154 155 156 156 154 154 150 148 150 147 140 138 135 128 122 108 94 88 71 123 149 160 156 140 127 119 113 107 96 90 78 65 53 42 36 27 21 17 17 18 14 10 8 6 4 2 1 360 358 357 357 356 355 353 353 353 352 351 352 352 352 352 352 351 351 351 351 351 351 353
82 70 52 44 72 84 77 112 125 132 129 119 118 117 116 102 67 87 94 70 80 100 122 139 142 148 151 155 157 161 161 158 159 153 151 155 152 146 145 141 135 132 130 130 123 116 145 158 167 158 139 130 123 119 111 98 89 69 52 40 29 23 16 10 8 11 10 8 5 3 1 360 359 359 358 357 356 355 354 352 352 352 352 351 351 351 351 353 352 350 351 351 351 351 350 351 353
101 97 59 53 66 75 80 99 109 116 114 109 113 106 96 95 81 85 81 76 98 104 119 134 143 150 153 157 160 164 163 160 163 158 157 163 160 153 149 144 140 144 144 137 135 147 160 169 177 162 143 139 131 123 114 100 79 54 38 25 17 12 6 1 2 3 2 3 1 359 359 358 358 358 358 357 355 353 351 350 351 350 350 350 350 351 351 351 350 350 351 352 351 350 351 352 353
103 108 84 70 64 75 84 89 91 91 95 103 102 87 83 94 96 83 75 93 108 109 123 132 146 154 158 162 163 167 163 162 168 162 160 162 157 151 148 145 145 151 144 133 139 155 165 173 182 168 151 144 133 127 110 92 60 33 20 13 8 3 357 356 358 358 358 358 357 357 358 357 356 357 356 355 353 351 349 349 349 348 349 350 350 350 350 350 350 351 353 351 350 351 353 354 353
112 115 101 90 73 81 86 85 87 86 93 103 96 82 90 100 96 76 74 118 121 123 131 133 150 158 163 166 165 166 161 166 172 160 156 159 156 152 153 151 152 151 135 126 137 156 168 176 183 171 157 147 135 127 95 62 31 13 4 4 360 356 353 354 356 355 354 356 357 357 357 356 356 355 354 353 351 349 348 348 347 347 349 349 350 349 350 351 351 352 352 349 350 353 354 352 350
112 106 94 91 82 79 84 87 92 90 90 103 102 88 84 88 93 80 83 124 137 140 138 141 153 158 164 167 166 167 168 174 172 158 156 162 159 155 159 159 156 144 125 131 145 161 174 184 187 177 164 153 146 125 55 14 3 356 351 355 353 351 351 352 353 352 352 354 357 358 355 355 355 353 352 350 348 347 347 347 347 347 348 350 349 348 350 351 351 352 350 348 351 352 351 349 347
116 104 88 84 84 73 73 87 101 97 92 106 107 94 61 55 72 107 111 117 143 145 141 148 155 159 165 169 172 174 175 173 168 161 162 166 161 160 166 165 161 147 132 146 162 173 184 200 196 187 176 167 172 192 346 343 344 342 343 349 349 347 349 349 350 352 353 353 355 357 355 353 352 350 349 346 345 346 346 347 347 346 348 349 347 347 350 350 350 351 348 348 350 349 348 347 345
121 109 97 89 87 65 47 66 103 102 110 122 112 98 43 35 77 121 126 123 138 141 139 150 156 162 165 170 175 176 176 173 168 164 166 169 166 167 169 172 181 165 141 162 186 186 196 211 204 201 191 188 212 256 310 323 334 334 337 343 346 345 346 348 349 353 353 351 350 353 353 349 348 347 345 345 344 345 346 346 345 345 347 347 345 347 349 349 350 350 347 348 349 348 346 345 343
123 109 114 117 93 56 24 46 105 99 118 140 116 110 77 45 104 119 122 124 128 128 130 148 159 166 167 170 174 173 175 176 170 165 168 173 172 171 170 184 191 167 148 194 203 199 206 218 216 214 205 214 246 280 305 317 327 328 333 339 343 344 346 348 350 352 351 348 346 348 348 345 345 344 343 344 344 344 344 344 344 345 346 346 345 347 349 349 350 349 348 348 348 347 345 344 342
128 114 125 137 126 90 18 37 106 106 134 152 353 113 117 98 127 124 123 121 123 126 133 150 156 165 171 172 174 174 174 174 171 170 175 178 177 177 175 186 191 200 241 215 217 214 212 229 228 221 223 235 258 280 295 310 319 324 331 337 342 345 345 346 349 350 345 343 341 342 344 343 344 343 342 342 342 342 342 343 344 345 346 345 345 348 349 349 348 349 349 347 346 345 343 343 343
148 139 140 162 136 125 74 41 34 108 152 256 340 90 109 130 137 137 137 129 129 133 137 149 152 163 172 174 176 175 174 174 173 177 183 185 184 185 190 205 221 239 246 232 229 224 219 235 236 229 236 247 259 275 291 306 313 321 330 335 339 340 342 344 347 345 339 337 338 342 345 343 342 341 340 340 340 340 341 342 344 345 345 345 346 348 349 348 347 348 348 347 345 343 343 344 346
205 181 147 146 128 128 126 62 360 93 138 255 278 131 104 132 139 141 148 140 130 126 133 152 159 167 173 174 174 174 179 179 178 183 189 192 192 199 219 240 249 245 239 238 232 226 229 237 241 237 240 251 263 277 291 301 309 319 327 332 335 335 339 342 341 337 334 335 340 344 344 340 339 338 337 337 338 339 341 343 344 344 344 344 346 347 348 348 347 346 346 346 343 343 345 347 348
198 200 132 116 122 133 136 108 346 157 140 78 74 104 90 113 138 148 153 149 136 132 146 164 171 180 180 178 177 179 186 186 187 194 197 198 204 221 244 259 275 248 226 230 228 224 235 241 244 243 244 255 266 278 289 298 307 317 323 328 330 330 334 336 337 335 333 338 342 341 339 337 335 335 335 335 337 340 343 344 343 342 342 344 346 347 347 347 345 344 342 343 343 345 347 348 347
177 173 125 108 120 130 128 124 159 180 141 105 90 100 110 121 141 153 153 153 149 149 164 168 177 189 185 187 188 185 191 195 197 205 208 210 222 242 258 282 298 244 212 218 220 220 238 245 244 246 250 258 268 279 288 297 306 313 319 325 329 330 333 336 337 333 332 338 340 336 334 334 333 332 333 335 338 342 343 343 342 341 342 344 346 346 345 344 343 342 340 342 345 348 350 348 345
148 122 113 118 118 110 117 121 153 195 135 112 102 113 135 146 154 162 160 161 156 151 168 171 181 197 194 197 203 198 201 206 204 210 218 222 235 251 263 286 280 224 204 209 214 221 240 246 248 249 254 261 270 280 287 297 305 314 321 327 332 333 331 332 332 328 329 335 335 331 332 332 331 332 334 337 340 342 342 341 341 341 342 344 345 344 344 343 341 341 342 345 346 347 349 348 344
119 107 104 105 104 96 109 119 147 237 100 90 92 107 133 153 166 174 169 170 167 159 169 181 188 205 206 204 211 209 206 210 213 217 228 239 249 255 264 275 246 212 204 210 216 227 243 250 253 254 259 265 273 282 292 301 306 317 325 326 328 324 321 325 327 323 324 329 328 327 329 330 331 333 336 338 339 340 340 341 341 342 343 344 345 344 343 342 341 342 344 346 346 345 346 347 344
111 111 113 100 99 98 100 116 139 272 37 99 102 101 118 145 166 173 169 182 191 177 174 187 197 207 216 211 212 212 206 214 223 223 236 253 255 258 269 267 236 213 209 215 222 235 247 253 257 261 268 274 280 286 294 302 306 317 322 319 320 319 319 323 325 322 320 322 322 325 330 331 333 335 338 339 339 340 340 342 342 343 345 344 344 343 341 340 341 344 345 345 345 343 344 345 344
111 115 116 109 115 106 89 101 137 302 63 128 126 107 110 142 160 168 181 201 204 188 180 186 200 209 222 221 211 210 214 219 224 230 244 256 258 261 263 251 226 213 213 218 228 241 249 256 263 269 277 284 288 290 294 301 308 319 320 317 319 319 321 326 326 322 320 319 319 326 332 333 335 338 339 340 340 340 341 342 343 344 345 343 341 339 339 340 343 345 345 343 342 341 342 344 346
118 130 125 129 144 134 112 128 143 57 72 139 144 120 109 145 147 172 194 203 208 202 196 197 209 213 223 228 217 214 216 216 220 228 238 253 265 259 249 234 214 209 214 220 233 245 251 259 265 272 281 288 291 296 302 307 314 319 317 316 316 317 323 328 325 321 321 321 322 328 333 334 336 339 340 340 341 341 341 342 344 344 343 341 339 339 339 342 345 345 343 342 342 340 341 343 346
101 123 131 145 154 135 123 140 142 81 59 137 151 123 130 162 165 191 193 200 209 208 204 208 220 221 221 227 227 226 220 216 215 211 220 243 255 247 231 214 205 207 216 224 238 248 255 262 268 275 283 287 293 302 311 315 318 317 314 315 316 320 324 324 318 316 318 318 319 324 328 332 335 338 340 341 341 341 341 342 343 342 341 339 339 339 342 344 345 343 342 342 343 341 340 341 345
77 60 137 150 145 123 126 144 147 113 94 185 175 111 207 180 183 186 165 192 213 205 206 215 224 227 222 216 221 229 222 215 211 203 215 237 245 239 211 201 202 208 219 230 245 255 262 266 272 279 282 288 297 309 317 319 317 314 313 315 317 318 320 316 310 308 309 311 316 321 325 330 334 337 340 342 341 341 341 342 342 340 339 339 340 341 344 345 343 343 342 341 341 341 339 340 342
89 34 138 139 130 126 140 153 147 126 132 159 143 124 193 212 205 179 156 186 209 200 208 218 223 227 224 215 216 223 218 213 210 200 205 227 238 227 200 195 202 212 224 241 256 264 269 271 275 280 283 291 302 314 318 317 314 313 313 314 315 316 316 315 310 310 313 315 319 324 327 331 335 339 341 343 343 342 342 342 340 339 339 340 342 344 345 344 342 342 342 340 340 341 341 340 340
106 307 130 128 131 138 151 152 128 117 104 72 188 175 91 269 227 157 153 178 202 203 210 215 216 219 223 221 220 219 215 215 216 212 212 218 227 221 202 197 203 213 230 250 262 266 271 273 275 279 286 294 305 313 314 313 312 312 313 313 316 317 316 316 313 314 318 319 323 328 333 336 337 339 340 342 345 343 341 341 340 340 341 343 346 346 345 342 341 341 340 340 341 342 341 338 336
115 280 126 129 138 146 153 138 113 137 117 83 252 250 63 278 303 122 147 173 214 217 212 208 207 209 214 217 216 215 212 212 218 223 222 219 224 221 209 205 207 217 236 253 265 268 271 272 272 278 287 296 304 308 309 311 311 311 312 313 315 315 315 316 314 317 322 327 331 334 339 339 333 334 337 340 344 342 340 340 341 343 345 347 347 344 342 341 340 341 341 342 341 339 337 334 332
212 187 116 122 136 147 164 134 113 130 112 127 221 304 90 252 300 157 162 211 226 216 206 203 204 203 206 209 209 210 208 209 216 222 216 214 221 221 214 212 215 227 241 254 267 270 271 270 273 280 288 296 301 303 306 309 310 310 310 312 314 315 316 315 315 320 327 331 333 332 336 334 326 328 334 337 339 339 340 341 344 347 348 347 344 342 341 341 341 341 341 340 338 336 334 332 331
161 131 112 120 127 136 174 88 91 94 62 305 287 357 94 205 272 194 187 257 220 191 180 191 196 199 203 205 205 205 202 204 208 208 205 209 220 221 219 221 227 236 247 259 268 270 270 270 275 283 288 295 299 302 307 309 309 310 312 315 318 317 317 317 316 322 326 327 328 329 330 328 324 328 332 334 335 337 340 344 347 349 346 343 342 341 341 342 341 340 338 337 335 334 333 332 332
126 133 124 118 106 85 47 23 30 103 155 270 308 351 88 185 261 209 192 326 5 156 164 165 173 183 193 197 199 199 198 201 203 202 206 212 218 218 220 227 234 241 251 262 269 270 271 272 277 281 287 294 300 305 308 310 311 314 317 319 320 319 319 319 319 323 324 324 326 327 328 327 327 328 330 331 334 339 344 348 348 346 343 342 342 343 342 340 339 337 336 336 336 335 334 335 335
34 142 120 104 110 101 74 33 51 109 246 268 332 336 278 224 252 168 155 111 43 73 98 114 137 154 169 178 185 187 186 189 192 197 205 211 213 214 219 228 236 246 256 264 268 270 270 271 274 279 288 295 302 307 309 313 317 319 321 321 320 321 321 321 324 327 326 325 327 327 328 330 329 329 331 334 339 345 348 347 345 344 343 343 343 342 340 338 337 337 338 338 337 337 337 338 338
197 147 124 113 138 133 142 184 155 99 283 303 336 333 266 242 312 103 122 106 88 94 102 113 125 134 149 165 176 181 181 179 181 191 204 212 215 217 222 232 243 255 265 269 269 268 264 264 270 279 289 298 305 310 313 317 320 321 322 323 324 324 325 327 328 328 328 327 328 328 330 331 331 331 335 341 346 348 346 344 344 344 344 343 342 340 338 337 338 339 339 340 339 340 340 341 340
183 128 110 114 150 140 145 171 143 126 155 341 339 340 171 200 260 95 109 101 100 108 117 128 136 150 172 185 194 197 199 200 203 207 214 220 223 226 231 240 252 260 263 265 264 257 250 255 269 282 293 305 311 312 315 317 319 322 325 329 330 329 329 330 329 329 329 329 328 329 330 330 332 336 342 346 346 344 343 344 344 343 342 341 340 338 338 338 340 341 342 343 343 341 341 342 340
340 14 63 96 203 151 125 148 135 130 124 63 279 264 182 134 66 76 107 111 116 122 126 131 136 153 169 183 197 203 212 219 221 222 223 225 227 231 237 243 248 249 249 251 245 236 239 252 271 289 303 310 311 312 316 319 322 328 333 336 335 331 330 330 330 330 329 329 329 329 330 333 339 344 346 345 342 342 343 344 344 342 340 340 339 338 339 340 342 344 345 346 345 342 341 341 339
314 19 40 241 194 121 113 73 34 102 125 162 207 241 51 76 17 35 124 126 135 138 141 145 145 147 150 159 172 178 191 201 208 215 218 223 227 229 231 231 232 231 228 226 218 215 227 246 282 301 308 309 310 313 316 322 329 336 339 339 336 332 331 330 329 329 330 330 330 331 336 341 345 346 343 342 342 343 344 343 342 341 340 339 339 339 340 343 345 347 349 348 344 342 342 341 339
112 91 187 185 46 85 105 92 26 39 139 207 225 194 173 174 279 243 175 179 177 171 165 155 155 160 157 160 167 171 178 179 185 196 200 206 210 209 209 207 208 208 203 200 196 194 210 254 297 305 307 307 310 315 321 330 336 340 341 338 335 333 330 330 329 329 330 330 332 338 344 347 346 343 342 342 343 343 342 341 340 340 340 340 340 341 343 346 348 349 349 348 345 343 343 343 341
84 139 165 116 76 30 9 104 129 171 163 248 303 302 209 203 193 208 211 205 184 178 174 158 164 170 161 160 168 172 177 177 180 181 177 180 181 181 185 185 185 186 181 181 181 180 204 272 305 308 311 313 315 320 328 336 337 338 339 336 333 331 329 329 330 330 331 334 341 346 348 346 344 342 342 342 342 341 341 341 340 341 341 341 341 343 346 349 350 350 350 349 348 346 345 345 344
47 86 58 45 113 137 167 120 141 154 144 159 348 14 318 265 239 213 202 194 178 173 174 167 173 174 167 169 171 167 168 170 171 171 166 166 167 168 173 173 174 173 171 173 172 174 196 310 322 319 319 317 319 324 328 333 333 336 337 333 330 328 329 331 331 333 338 344 348 349 347 346 343 342 342 341 340 340 341 341 342 342 342 343 345 347 349 351 352 352 351 351 350 348 348 347 347
13 26 19 5 17 78 108 67 83 127 134 137 88 84 268 271 319 353 84 157 171 165 168 177 174 171 169 172 171 165 167 170 169 167 164 163 166 170 171 170 170 169 168 170 169 166 123 348 334 324 321 318 317 321 325 328 333 336 333 328 327 329 332 334 336 341 347 349 350 348 347 346 343 342 340 339 340 340 342 343 343 343 344 346 348 350 351 352 353 353 352 351 351 350 349 348 350
22 48 77 182 314 13 64 12 322 83 106 152 120 115 260 261 335 5 25 31 77 136 163 175 165 159 162 169 174 174 175 175 171 167 165 169 174 173 171 170 171 172 172 172 168 142 6 348 334 323 318 316 314 316 322 329 333 334 329 326 329 332 336 341 346 350 351 351 350 349 348 345 342 340 338 339 341 342 344 345 345 345 347 349 350 352 354 354 354 353 353 352 352 351 350 350 354